GEFSCGP_850_meantemp_000.txt.gz
Temperature
27 30 29 29 29 28 29 29 29 29 30 30 29 29 28 26 26 26 25 25 24 24 22 22 21 22 21 21 21 20 20 21 20 19 19 19 19 18 18 17 17 17 16 15
28 29 28 28 29 29 29 29 29 30 29 30 29 29 28 26 26 26 25 25 24 23 22 22 22 22 22 21 21 21 20 21 20 19 19 19 18 18 18 17 16 16 16 15
28 29 29 29 29 29 29 28 28 28 29 29 29 28 29 28 26 25 25 25 24 24 23 22 23 23 22 22 21 21 21 21 20 20 19 18 18 18 18 17 17 16 15 15
29 29 29 28 29 28 29 28 28 27 27 28 28 26 29 29 28 27 25 24 24 24 23 23 23 23 22 22 21 21 22 21 21 20 19 19 19 19 18 17 17 16 15 15
27 29 28 28 28 28 28 28 28 27 27 27 28 27 29 28 27 28 27 25 24 24 22 23 22 23 22 22 21 21 21 21 21 21 20 19 19 19 18 17 16 15 15 14
28 29 29 29 29 28 28 27 27 27 27 27 26 27 28 27 26 27 27 24 23 23 22 21 22 22 21 20 20 20 20 21 21 21 20 20 19 19 18 17 16 16 15 15
28 29 29 29 29 28 28 27 27 28 28 27 26 26 26 23 22 22 21 19 19 19 18 17 18 18 18 18 19 19 19 20 20 20 20 19 19 19 18 16 16 16 15 15
28 26 29 28 28 27 27 26 25 26 26 26 26 26 23 21 20 19 18 18 17 17 17 16 15 15 15 15 15 16 16 17 18 19 19 19 19 18 17 16 17 16 16 15
29 29 28 28 28 27 25 28 27 27 25 25 27 27 23 21 19 18 17 16 16 15 15 15 14 14 14 14 13 13 13 14 15 16 16 17 18 18 17 16 17 16 16 16
28 25 28 28 27 26 26 27 26 27 25 25 26 26 25 19 18 18 16 16 15 15 15 14 14 13 12 12 12 12 12 12 13 13 14 14 15 15 15 15 15 15 15 15
28 26 27 28 27 26 27 27 26 25 26 24 24 25 19 17 17 17 16 15 15 14 14 14 13 13 12 12 12 11 11 12 13 13 12 13 13 13 14 14 14 14 14 15
27 26 26 27 27 26 26 27 26 25 25 24 24 22 17 17 16 16 16 15 14 14 13 13 13 12 12 11 11 10 10 10 11 12 13 13 12 12 13 13 13 14 13 13
26 26 25 26 26 26 26 27 26 24 24 24 24 20 14 14 13 13 13 13 13 13 12 12 12 12 11 10 10 9 10 11 12 11 11 12 12 11 11 12 13 13 13 13
24 25 25 25 26 26 26 26 26 24 24 24 24 19 12 11 11 11 10 10 10 10 10 10 10 10 11 11 11 10 9 10 11 11 10 9 11 11 10 11 12 12 12 13
25 25 25 26 26 26 25 23 23 23 22 21 21 18 12 11 11 9 9 8 8 8 9 9 9 10 10 10 11 11 11 10 10 10 10 8 9 11 9 10 11 12 12 13
24 25 24 25 26 25 24 20 20 19 17 19 16 14 13 11 10 9 9 8 8 9 10 10 10 11 11 11 11 10 10 10 10 10 10 10 10 8 9 10 11 11 11 12
25 23 23 25 25 24 21 16 16 15 14 15 14 12 12 11 10 11 12 13 13 12 12 12 12 12 12 11 11 11 11 11 11 11 11 11 11 10 10 10 10 10 10 11
23 22 23 24 23 22 16 16 16 15 13 13 12 11 11 12 13 14 14 13 13 12 12 12 11 11 11 11 11 10 10 11 11 11 11 11 11 11 10 10 10 10 10 10
22 22 23 23 23 18 15 16 16 15 14 13 12 14 15 14 14 15 15 13 12 11 11 11 11 10 10 10 10 10 10 10 10 10 10 10 10 10 10 10 10 9 9 9
23 22 23 22 21 21 16 16 16 16 14 13 14 15 14 14 14 14 13 11 11 10 10 10 10 9 9 9 9 9 9 9 9 9 9 9 9 9 9 10 9 9 9 9
21 21 21 20 20 18 16 16 16 17 15 15 14 13 13 12 13 12 11 11 11 10 10 9 9 9 9 8 8 7 7 7 8 8 8 8 8 9 9 9 9 9 9 9
21 20 20 20 19 17 15 15 15 15 14 13 13 12 12 11 11 11 11 10 10 10 9 9 9 8 8 7 6 6 5 6 6 6 7 7 7 8 9 9 9 9 9 9
19 17 19 18 18 16 15 15 14 13 13 12 12 11 11 11 10 10 10 10 9 9 9 9 8 7 6 5 5 4 4 4 4 5 5 5 6 7 8 8 8 8 9 9
18 15 17 17 17 16 15 14 13 12 11 11 11 11 10 10 10 10 9 9 9 9 8 8 8 6 4 4 4 3 4 4 4 4 5 5 5 6 6 7 8 9 10 10
17 16 16 16 17 15 15 13 12 11 11 11 10 10 10 10 9 9 9 9 8 8 8 8 7 5 4 3 3 4 4 3 3 4 4 4 4 4 5 6 7 8 9 9
15 15 16 16 14 14 13 12 12 11 11 10 10 10 9 9 9 9 8 8 8 7 7 7 6 4 3 3 3 3 4 3 3 3 3 3 4 4 4 5 6 7 8 8

GEFSCGP_850_meantemp_006.txt.gz
Temperature
31 30 29 30 31 31 31 31 31 32 33 32 31 32 33 32 31 31 32 31 30 28 27 25 24 23 23 23 22 21 21 20 20 20 20 20 20 20 20 20 19 18 18 17
30 28 30 31 31 31 31 30 31 32 32 32 31 31 32 32 31 30 30 29 27 26 24 23 22 23 23 22 21 21 21 20 21 21 21 21 21 20 20 20 19 19 17 17
30 30 31 31 30 30 30 29 29 30 31 31 31 30 31 32 32 29 27 24 22 20 19 20 22 23 22 22 21 21 21 21 21 21 21 21 20 20 20 19 19 19 18 17
30 31 31 30 30 30 29 30 30 30 29 29 30 29 30 31 28 25 21 18 17 17 16 17 19 21 21 21 21 21 20 21 21 21 21 20 20 20 20 20 20 19 18 18
29 30 30 29 29 30 30 31 30 30 29 28 28 28 29 29 25 22 19 17 15 16 16 17 18 19 19 20 20 20 19 19 20 20 20 20 20 20 20 20 19 19 19 18
30 31 31 31 31 31 31 30 30 30 28 24 21 23 26 26 25 23 20 18 16 16 16 16 16 17 18 18 18 18 17 17 18 18 18 18 18 19 19 19 19 19 18 18
25 29 31 32 30 31 30 29 27 27 23 21 20 22 24 24 24 23 21 19 18 17 17 16 16 16 16 16 16 15 15 16 16 16 16 17 17 17 17 17 18 18 18 18
21 26 30 31 30 29 29 29 27 26 26 26 23 23 23 23 23 22 21 20 19 18 17 16 16 15 15 15 14 14 14 14 15 15 15 15 15 15 15 16 16 17 17 17
26 28 31 32 31 30 29 28 29 28 27 27 27 23 22 22 23 22 21 20 19 18 17 17 16 16 15 15 14 14 14 14 14 14 15 14 15 15 15 15 15 15 15 16
29 28 30 31 32 31 30 29 28 27 26 26 27 24 21 20 22 22 21 20 18 18 18 17 16 16 15 15 14 14 14 14 14 14 14 14 14 14 15 15 15 15 15 15
30 28 29 30 29 29 29 29 28 28 27 25 25 22 22 21 21 21 20 18 17 17 17 16 16 15 15 15 14 14 13 13 13 13 13 14 13 14 14 14 14 15 15 14
29 28 27 28 27 27 29 29 28 26 25 26 25 21 19 19 18 17 17 17 16 16 15 15 15 14 14 13 13 13 12 12 12 12 12 12 12 12 12 12 13 13 13 14
27 26 25 27 26 27 28 29 29 27 26 25 23 18 18 18 18 18 17 16 16 15 15 14 13 13 12 12 12 12 12 11 11 11 11 11 11 11 11 11 11 12 12 12
26 26 26 26 27 28 28 28 28 27 25 24 23 20 20 19 18 18 17 16 16 15 15 14 13 13 13 12 12 12 12 12 12 11 11 11 11 11 11 11 11 11 11 11
28 26 26 27 28 28 27 26 25 24 23 22 22 22 21 19 18 17 17 16 16 16 16 15 14 14 13 13 13 13 12 12 12 12 11 11 11 11 11 11 10 10 10 10
27 26 25 26 28 27 25 24 23 23 22 22 21 21 21 19 18 17 17 17 16 16 16 15 15 14 14 13 13 12 12 12 12 11 11 11 11 11 11 11 10 10 10 10
26 24 24 25 27 27 22 21 21 21 21 21 20 20 19 18 17 17 17 16 17 16 15 14 14 14 13 13 12 12 12 11 11 11 10 10 10 10 11 11 11 11 10 10
25 24 24 25 26 23 20 22 22 21 21 21 20 18 18 17 17 16 16 16 15 14 14 13 13 13 12 12 12 12 11 11 10 10 9 9 9 9 9 10 10 10 10 10
26 24 24 25 25 23 21 21 21 20 20 19 18 18 17 16 16 16 16 15 14 14 13 13 12 12 12 12 11 11 11 10 10 9 9 8 8 8 8 8 9 9 9 10
26 26 25 24 23 22 20 21 21 21 20 18 17 17 16 16 15 15 14 14 13 13 13 12 12 12 11 11 11 10 10 10 9 9 8 7 7 7 7 7 8 8 9 9
24 24 24 23 22 22 21 21 20 18 17 17 17 16 15 15 14 14 14 13 13 13 12 12 12 11 11 11 10 10 9 9 8 8 7 6 6 6 6 7 7 7 8 8
23 23 22 22 21 21 21 20 18 17 17 16 16 15 15 14 14 14 13 13 13 12 12 12 11 11 10 10 9 8 8 7 7 6 6 5 5 5 6 6 6 7 7 8
23 21 21 21 21 21 20 19 18 17 16 16 15 15 14 14 14 14 13 13 12 12 11 11 10 10 9 8 7 6 6 5 5 4 4 4 5 5 5 5 6 6 7 7
22 22 21 20 21 20 19 18 17 16 16 15 15 14 14 14 13 13 13 12 12 11 10 9 8 8 7 6 5 4 4 3 3 3 3 4 4 4 5 5 5 6 6 7
22 22 21 20 20 18 18 17 16 16 15 15 14 14 14 13 13 12 12 11 11 9 8 7 6 5 4 3 3 3 2 2 2 3 3 3 4 4 5 5 5 6 6 6
22 20 19 18 18 17 17 16 16 15 15 14 14 13 13 13 12 12 11 10 9 8 6 5 4 3 3 2 2 2 2 2 2 3 3 4 4 4 4 5 5 5 6 6

GEFSCGP_850_meantemp_012.txt.gz
Temperature
26 23 22 23 24 24 26 26 26 27 27 26 24 21 19 19 18 17 16 15 15 16 17 18 18 18 18 18 18 17 16 16 16 17 17 18 18 19 19 19 19 19 19 18
24 23 25 26 27 27 26 26 25 26 27 26 22 19 18 18 17 16 15 14 14 15 16 17 17 17 17 17 17 17 17 17 17 17 18 18 19 19 19 19 19 19 19 18
25 25 27 27 27 27 26 26 26 26 25 24 23 19 18 18 17 16 15 14 14 14 15 15 16 16 17 16 16 16 16 16 16 17 18 18 19 19 19 19 19 19 19 19
24 25 26 26 26 27 25 26 27 26 24 21 22 20 18 17 17 17 15 14 14 14 15 15 15 15 15 15 15 15 16 16 17 17 18 18 19 19 19 19 19 19 18 18
23 24 24 25 26 27 26 26 25 25 23 21 20 19 18 17 16 16 15 15 15 15 15 15 15 15 16 16 16 15 15 16 17 17 18 18 18 18 18 18 18 18 18 18
24 25 25 25 26 27 27 24 22 20 19 20 20 18 17 16 16 16 15 15 15 15 15 15 15 15 15 16 16 16 16 16 16 16 16 16 17 17 17 17 17 17 17 17
22 24 25 26 26 26 24 21 19 20 18 18 18 17 16 16 16 16 16 16 16 16 16 16 16 16 15 15 15 15 15 15 15 15 15 15 15 15 15 15 15 15 16 16
21 22 25 25 25 24 25 22 20 20 19 18 18 17 16 17 16 17 17 16 16 16 16 16 16 15 15 15 15 15 14 14 14 14 14 14 14 14 14 14 13 14 14 14
20 21 24 26 26 26 25 22 21 19 20 18 17 16 16 16 16 16 16 16 16 16 16 16 16 16 15 15 15 14 14 14 13 13 13 13 13 13 13 13 13 13 13 13
21 21 23 25 25 24 24 22 19 19 20 19 18 17 16 15 15 15 15 16 16 16 16 16 16 16 16 15 15 14 14 13 13 13 13 13 12 12 12 12 12 12 12 12
22 21 22 22 24 24 23 22 20 18 18 19 18 17 16 15 15 15 15 16 16 16 16 16 16 15 15 15 14 14 14 13 13 13 13 12 12 12 12 12 11 11 11 11
22 19 19 21 22 23 22 21 20 19 19 17 17 16 16 15 15 15 16 16 16 16 16 15 14 14 14 14 14 14 13 13 13 13 12 12 12 12 12 12 11 11 11 11
22 19 18 19 20 21 21 21 19 17 16 16 16 16 16 15 15 16 16 15 15 15 14 14 14 14 14 13 13 13 13 13 13 12 12 12 12 11 11 11 11 11 11 11
21 18 18 19 19 20 20 20 19 16 15 16 16 16 15 14 14 14 15 15 15 14 14 14 13 13 13 13 13 13 13 12 12 12 12 12 12 11 11 11 11 10 10 10
18 18 19 20 20 20 19 20 19 17 17 16 16 15 14 14 14 14 14 14 14 14 13 13 13 13 13 13 13 12 12 12 12 12 12 11 11 11 11 10 10 10 10 10
17 18 18 19 20 19 19 19 18 18 17 16 15 14 14 14 14 14 14 14 14 14 14 13 13 13 13 13 12 12 12 12 12 11 11 11 11 11 10 10 10 10 9 9
18 18 18 18 20 19 16 17 17 17 15 14 13 13 12 12 13 13 14 14 14 13 13 13 13 12 12 12 11 11 11 11 11 11 11 11 11 10 10 10 10 9 9 9
19 17 16 17 18 18 17 18 18 16 14 15 14 13 13 13 14 14 14 14 13 13 12 12 11 11 11 10 10 10 10 10 10 10 10 10 10 10 9 9 9 9 9 8
18 18 16 15 17 17 18 17 17 16 14 14 13 12 14 14 13 13 13 13 12 12 11 11 10 9 9 9 8 8 8 7 7 8 8 8 8 8 8 8 8 8 8 8
16 16 16 16 17 17 16 17 18 16 14 14 14 13 13 12 10 10 12 12 11 10 10 9 8 8 7 7 6 5 5 5 5 5 5 5 6 6 7 7 7 7 7 7
17 15 15 16 16 16 16 17 15 13 12 14 14 14 13 11 11 12 12 11 10 9 8 8 7 6 5 5 4 4 4 4 4 3 4 4 4 4 5 5 5 6 6 6
16 15 15 14 15 15 16 15 14 13 15 14 14 13 13 12 12 11 10 9 9 8 7 6 5 5 4 4 4 3 3 3 3 3 3 3 3 3 3 4 4 4 5 5
16 15 14 14 14 15 16 16 15 15 15 14 13 13 12 12 11 10 9 8 8 7 6 5 5 4 4 4 4 3 4 3 3 3 3 3 3 3 3 3 3 3 4 4
16 16 15 15 15 16 16 16 15 15 14 14 13 12 12 11 10 9 8 8 7 6 5 5 4 4 4 4 4 4 4 4 3 3 3 3 3 3 3 3 3 3 4 4
16 16 15 15 16 16 16 15 15 14 14 13 13 12 11 10 9 8 8 7 6 5 5 4 4 4 4 4 4 4 4 4 4 4 3 3 3 3 3 4 4 4 4 4
16 15 14 13 15 14 15 15 14 14 13 13 12 11 10 9 9 8 7 6 6 5 5 4 4 4 4 4 5 5 4 4 4 4 4 3 3 3 3 4 4 4 4 4

GEFSCGP_850_meantemp_018.txt.gz
Temperature
23 21 21 21 21 22 23 23 23 22 19 17 17 16 16 16 15 14 14 14 14 15 15 16 16 17 17 17 16 16 16 16 16 15 15 15 15 15 15 16 16 16 17 17
21 22 23 23 22 22 22 23 23 21 19 18 17 16 16 16 15 14 13 14 14 15 15 16 16 16 16 16 16 16 16 16 15 15 15 15 15 15 16 16 17 17 17 17
23 24 24 24 24 24 24 24 24 22 19 17 17 16 16 16 15 14 14 14 14 15 15 15 15 16 16 16 16 16 16 16 16 16 16 16 16 16 16 17 17 17 17 17
23 23 24 24 24 24 23 24 24 23 20 17 18 16 16 15 15 14 14 14 14 15 15 15 15 16 16 16 16 16 16 16 16 16 16 16 16 16 16 16 17 17 17 17
22 23 23 24 25 24 24 22 21 21 19 17 17 16 16 15 15 14 14 14 14 14 15 15 15 15 16 16 16 16 16 16 16 15 15 15 15 15 15 15 16 17 17 17
22 23 23 23 24 24 23 21 20 17 17 18 17 17 17 15 15 15 14 14 14 15 15 15 15 15 15 15 15 15 15 15 15 15 15 15 15 15 14 15 15 15 15 16
21 22 23 23 23 23 21 20 19 19 17 18 17 17 16 16 16 15 15 15 15 15 15 15 15 15 15 15 15 15 15 15 14 14 14 14 14 14 14 14 14 14 14 14
21 21 22 23 23 22 21 20 19 19 18 17 17 16 16 16 15 15 15 15 15 15 15 15 15 15 14 14 14 14 14 14 14 14 14 13 13 13 13 13 13 13 13 13
21 21 22 23 22 22 22 18 18 16 17 17 16 16 16 15 14 15 15 15 15 15 15 15 15 14 14 14 14 14 14 14 13 13 13 13 13 13 13 13 13 13 13 13
21 21 21 21 21 21 20 18 16 16 17 17 17 16 15 14 14 14 14 15 15 15 15 15 14 14 13 13 13 13 13 13 13 13 13 13 13 13 13 13 12 12 12 12
20 19 20 20 19 19 19 18 15 14 15 16 17 15 14 13 13 13 14 15 15 14 14 14 14 13 13 13 13 13 13 13 13 13 13 12 12 12 12 12 12 12 12 11
18 16 18 19 19 19 18 17 16 16 16 14 14 14 13 13 13 14 14 14 14 14 13 13 13 13 12 12 12 12 12 12 12 12 12 12 12 12 12 12 12 12 11 11
18 16 17 18 18 17 17 17 14 13 13 14 14 14 13 13 13 14 14 14 14 13 13 13 12 12 11 11 11 11 11 11 11 11 11 11 11 11 11 11 11 11 11 11
17 15 16 18 18 17 17 17 16 14 13 14 14 14 13 12 11 12 14 14 13 13 12 11 11 10 10 10 9 9 9 9 9 9 9 10 10 10 11 11 11 11 11 11
16 16 17 17 17 17 17 17 16 16 16 14 14 13 13 12 11 12 13 13 12 12 11 10 10 9 9 8 7 7 7 7 7 7 7 8 8 9 9 9 10 10 11 11
14 16 17 17 17 17 16 17 16 16 15 14 13 13 12 13 13 12 12 12 11 11 10 9 9 8 7 6 6 5 5 5 5 5 5 6 6 6 7 8 8 9 10 10
14 15 15 15 17 16 16 16 16 15 14 14 12 12 11 10 10 11 12 11 11 10 9 8 7 7 6 5 5 5 4 4 4 4 5 5 5 5 5 6 6 7 8 9
15 13 12 14 16 17 15 16 16 15 13 13 12 11 11 11 12 12 12 10 9 9 8 7 7 6 5 5 4 4 4 4 4 4 4 4 4 4 4 4 5 5 6 7
14 14 13 13 16 16 16 16 15 14 12 12 12 11 12 12 10 10 11 9 9 8 7 7 6 5 5 5 4 4 4 4 4 4 4 4 4 3 3 4 4 4 5 6
13 13 13 13 16 16 16 16 16 14 12 13 12 11 11 10 7 8 10 9 8 8 7 6 6 5 5 5 4 4 4 4 4 4 4 4 3 3 3 3 3 3 4 4
16 14 14 14 15 14 15 15 15 14 13 14 13 13 12 9 9 10 9 8 8 7 7 6 6 6 5 5 4 4 4 4 4 4 4 4 4 3 3 3 3 3 3 4
15 15 14 12 15 15 15 14 13 13 15 14 13 13 12 11 10 9 8 8 7 7 7 6 6 6 6 5 5 4 4 4 4 4 4 4 4 3 3 3 3 3 3 3
13 14 13 13 14 15 16 15 16 15 14 14 13 12 11 10 9 8 8 7 7 7 7 6 6 6 6 6 5 5 5 5 4 4 4 4 4 4 3 3 3 3 3 3
14 12 12 12 13 14 15 15 15 15 14 13 13 12 11 9 9 8 7 7 7 7 7 6 6 6 6 6 6 5 5 5 5 4 4 4 4 4 4 3 3 3 3 3
14 12 12 13 13 14 15 15 15 14 14 13 12 11 10 9 8 8 7 7 7 7 7 7 6 6 6 6 6 6 5 5 5 5 4 4 4 4 4 4 3 3 4 3
13 13 13 14 16 14 16 17 15 14 14 13 12 11 10 9 8 8 7 7 7 7 7 7 7 7 6 6 6 6 6 6 5 5 5 4 4 4 4 4 4 4 4 4

GEFSCGP_850_meantemp_024.txt.gz
Temperature
28 29 29 29 29 29 29 29 28 26 25 25 23 22 21 20 20 19 18 18 18 17 17 16 16 16 16 16 16 16 17 16 16 16 15 15 15 15 15 15 15 15 15 15
29 29 29 29 29 29 29 29 28 26 25 24 23 22 22 21 20 19 19 19 18 18 17 17 17 17 16 16 16 16 16 16 16 16 15 15 15 15 15 15 15 15 15 15
29 29 29 29 29 29 29 29 28 26 24 25 24 23 22 22 20 19 19 18 18 18 18 17 17 17 16 16 16 16 15 15 15 15 15 15 15 15 15 15 15 15 15 15
29 29 28 29 29 29 28 29 28 26 25 25 25 24 23 22 22 21 20 19 18 18 18 17 17 17 16 16 15 15 15 15 15 14 14 14 14 14 14 14 14 14 15 15
28 28 28 28 28 28 28 28 28 27 27 26 26 25 23 23 22 22 21 19 19 18 18 17 17 16 16 15 15 14 14 14 14 14 14 13 14 14 14 14 14 14 14 14
28 28 28 28 28 28 28 28 27 28 28 26 26 25 22 23 22 22 21 19 18 18 18 17 17 16 16 15 15 14 13 13 13 13 13 13 13 13 13 13 13 13 14 14
28 28 28 28 29 28 28 27 27 26 26 25 25 25 22 22 22 21 21 20 19 18 18 17 17 16 15 15 14 14 13 12 12 12 12 12 12 12 12 12 13 13 13 13
27 27 27 28 27 27 27 28 26 25 25 26 25 23 21 21 20 20 20 19 19 18 18 17 16 16 15 14 14 13 12 12 12 12 11 11 11 12 12 12 12 12 13 13
27 27 27 27 27 27 27 27 27 26 26 25 24 22 20 20 20 20 20 19 19 18 17 17 16 15 15 14 13 13 12 11 11 11 11 11 11 11 11 11 11 12 12 12
27 26 27 27 28 27 27 26 27 26 24 24 25 24 22 21 21 21 20 19 19 18 17 16 15 15 14 13 13 12 11 11 10 10 10 10 10 10 10 10 10 10 11 11
27 26 26 27 25 25 26 26 26 26 25 24 24 24 22 21 21 21 20 19 18 17 16 16 15 14 13 13 12 11 11 10 10 9 9 8 8 8 9 9 9 9 10 10
26 27 26 25 25 26 25 25 25 25 24 24 24 24 21 21 21 20 19 18 17 16 15 15 14 13 12 12 11 11 10 9 9 8 8 8 8 8 8 8 8 8 8 9
26 26 25 25 25 25 25 24 25 24 24 24 23 24 21 21 20 19 19 18 16 16 15 14 13 12 11 11 10 10 9 9 8 8 7 7 7 7 7 7 7 7 7 8
25 26 25 25 25 25 24 24 24 24 24 23 23 23 23 22 21 20 18 17 16 15 14 13 12 11 11 10 9 9 8 8 7 7 7 6 6 6 6 6 6 6 6 7
26 26 25 25 25 25 24 24 23 23 23 23 22 22 22 21 20 18 17 16 15 15 14 13 12 11 10 9 9 8 7 7 6 6 6 6 6 6 6 6 6 6 6 6
25 25 25 25 24 24 23 23 23 22 22 22 22 22 22 20 19 18 17 16 15 14 13 12 11 10 10 9 8 8 7 7 6 6 6 6 6 6 6 6 5 5 5 5
26 25 24 25 24 24 24 24 23 23 23 22 22 22 21 20 18 17 16 15 14 13 12 11 11 10 9 9 8 7 7 6 6 6 6 6 6 6 5 5 5 5 5 5
24 24 24 25 24 23 24 24 23 22 22 22 22 21 21 19 17 16 15 14 13 12 11 11 10 10 9 9 8 7 7 6 6 6 6 6 5 5 5 5 5 5 5 4
24 24 24 24 24 25 23 22 22 22 22 22 21 21 19 19 17 18 15 14 13 12 11 10 10 9 9 8 8 7 6 6 6 6 6 5 5 5 5 5 5 5 4 4
23 23 24 24 23 23 24 23 21 21 21 22 21 20 19 18 18 18 15 13 12 11 10 10 9 9 9 8 7 6 6 6 6 6 5 5 5 5 5 5 5 5 4 4
24 24 24 24 23 24 24 22 21 21 22 21 20 19 18 18 17 15 14 12 11 11 10 9 9 9 8 8 7 6 6 6 5 5 5 5 5 5 5 5 5 5 4 4
25 25 24 23 23 24 23 22 22 22 21 20 19 18 17 16 15 14 13 12 11 10 10 9 9 9 8 7 7 6 6 6 5 5 5 5 5 5 5 5 5 5 4 4
24 25 25 24 24 23 22 22 22 21 20 19 18 18 16 15 15 14 13 12 11 10 10 9 9 8 8 7 7 6 6 6 5 5 5 5 5 5 5 5 5 5 5 4
25 22 23 23 24 23 22 21 21 20 19 18 17 16 16 15 14 13 12 11 10 10 9 9 8 8 8 7 7 6 6 6 5 5 5 5 5 5 5 5 5 5 5 4
25 23 23 23 23 23 22 21 21 20 18 17 17 16 15 14 13 13 12 11 10 9 9 8 8 7 7 7 7 6 6 6 6 6 5 5 6 6 5 5 5 5 5 4
25 24 23 24 24 23 23 22 21 20 18 17 16 16 15 14 13 12 11 10 9 9 8 8 7 7 7 7 6 6 6 6 6 6 6 6 6 6 6 6 6 6 5 5

GEFSCGP_850_meantemp_030.txt.gz
Temperature
30 29 27 26 28 28 28 26 24 24 27 28 27 26 26 25 24 23 21 21 20 20 19 19 19 19 18 17 17 17 16 16 16 16 16 16 16 16 16 16 16 15 15 15
29 26 26 28 29 30 30 29 27 26 26 27 27 27 26 26 25 23 22 21 21 20 20 20 19 19 19 18 17 17 16 16 15 15 15 15 15 15 16 16 16 15 15 15
27 26 27 29 30 30 30 28 28 26 26 26 26 25 25 25 24 24 23 22 22 21 21 20 20 19 19 18 18 17 16 15 15 14 14 14 14 15 15 15 15 15 15 14
29 30 30 30 30 30 27 28 28 28 26 25 24 21 22 22 23 24 23 22 22 21 21 20 20 20 19 18 18 17 16 15 14 14 13 13 13 13 14 14 14 14 14 14
28 30 30 30 30 30 29 29 28 26 24 22 18 17 18 20 21 23 23 23 22 22 21 21 20 20 19 18 17 17 16 15 14 13 13 12 12 12 12 13 13 13 14 14
28 31 31 31 31 31 31 29 26 22 21 19 18 18 18 20 22 23 23 23 22 22 22 21 21 20 19 18 17 17 16 15 14 13 12 12 12 12 12 12 12 13 13 14
27 29 31 32 30 29 30 28 24 20 18 19 20 19 20 23 24 24 24 23 23 22 22 21 21 20 19 18 17 16 15 14 14 13 12 12 11 11 11 12 12 12 12 13
27 26 29 31 30 29 29 29 26 25 24 23 21 20 22 25 25 24 24 24 23 23 22 22 21 19 19 18 17 16 15 14 13 12 12 11 11 11 11 11 11 11 11 12
28 28 31 31 31 30 29 29 30 28 28 26 23 22 22 25 25 25 25 24 24 23 22 21 20 19 18 17 16 15 14 13 12 12 11 11 11 10 10 10 10 10 10 11
30 29 30 31 31 30 30 30 29 27 26 26 26 23 22 24 25 25 25 24 23 22 21 20 19 18 17 16 15 14 14 13 12 11 11 11 10 9 9 9 9 9 9 9
30 28 29 30 29 29 29 29 28 28 27 26 26 24 25 25 25 25 25 24 23 21 20 19 18 17 16 15 15 14 13 12 12 11 10 10 9 9 9 9 9 9 9 9
30 29 27 27 28 29 29 28 28 26 26 27 26 25 26 26 25 25 24 23 21 20 19 18 18 16 15 15 14 13 12 12 11 11 10 10 9 9 9 8 8 8 8 8
28 28 26 25 25 27 29 29 28 27 27 26 26 25 26 27 26 24 23 22 21 20 19 18 17 16 15 14 13 12 12 11 11 10 10 9 9 9 8 8 8 8 8 8
27 28 27 26 27 28 29 29 29 27 26 26 26 26 26 26 24 24 22 21 20 19 18 17 16 15 14 13 13 12 12 11 11 10 9 9 9 8 8 8 8 8 8 8
29 28 28 29 29 29 29 29 28 27 27 26 26 26 26 25 24 23 22 21 20 19 18 17 16 15 14 13 12 12 11 11 10 10 9 9 9 8 8 8 8 8 8 8
29 27 27 27 28 28 28 28 28 27 27 27 26 26 26 25 24 23 22 21 20 19 17 16 15 15 14 13 12 12 11 11 10 9 9 9 8 8 8 8 8 8 8 7
28 27 26 26 28 28 27 28 28 27 27 27 25 25 25 24 23 22 21 20 19 18 17 16 15 14 13 13 12 12 11 10 10 9 9 8 8 8 8 8 7 7 7 7
27 26 26 26 26 25 27 29 28 27 27 27 26 25 25 24 23 22 20 19 18 17 16 15 14 14 13 13 12 11 11 10 9 9 8 8 8 8 7 7 7 7 7 7
29 27 26 26 25 26 27 28 27 26 25 26 25 25 24 24 23 21 19 18 18 16 15 14 14 13 13 12 12 11 10 10 9 9 8 8 8 7 7 7 7 7 7 7
29 27 26 26 25 24 27 28 27 26 25 25 25 24 24 23 22 22 19 18 17 16 15 14 14 13 12 12 11 10 10 9 9 8 8 7 7 7 7 7 7 7 7 7
27 26 26 25 25 26 28 27 27 25 24 24 24 23 23 22 21 20 19 18 17 16 15 14 13 13 12 11 11 10 9 9 8 8 7 7 7 7 7 7 7 7 7 7
27 27 26 26 26 26 27 27 26 25 25 24 24 23 23 22 21 20 19 18 16 15 15 14 13 12 12 11 10 9 9 8 8 8 7 7 7 7 7 7 7 7 7 7
28 28 27 27 26 26 27 26 26 25 25 24 24 23 22 21 20 20 18 17 16 15 14 13 12 12 11 10 10 9 8 8 7 7 7 7 7 7 7 7 7 7 7 7
28 29 27 26 27 27 27 27 26 26 25 24 24 23 22 21 20 19 18 17 16 15 13 13 12 11 11 10 9 8 8 7 7 7 7 7 7 7 7 7 8 8 8 7
28 28 27 26 27 27 27 26 26 26 25 24 24 23 22 21 20 19 18 16 15 14 13 12 12 11 10 9 9 8 7 7 7 7 7 7 7 7 7 8 8 8 8 8
28 28 27 27 27 27 26 26 26 26 25 24 24 23 22 21 20 18 17 16 15 14 13 12 11 10 10 9 8 7 7 7 6 6 6 7 7 7 7 8 8 8 8 8

GEFSCGP_850_meantemp_036.txt.gz
Temperature
26 23 22 22 23 23 23 23 22 22 21 20 19 18 17 17 17 17 18 18 18 18 18 18 18 18 18 18 18 17 17 17 17 16 16 15 15 15 14 14 14 14 14 14
23 23 24 25 25 24 24 23 21 21 21 20 18 17 17 17 16 17 17 18 18 18 18 18 18 18 18 18 18 17 17 17 16 16 15 15 14 14 14 14 13 13 13 13
24 24 26 25 25 24 23 22 21 20 19 19 18 17 16 17 16 17 18 18 19 19 19 19 19 18 18 18 18 18 17 17 16 15 15 14 14 13 13 13 13 13 13 13
24 25 26 25 24 24 22 23 23 21 18 16 17 16 16 16 16 17 18 18 19 19 19 19 19 19 19 18 18 17 17 16 16 15 14 14 13 12 12 12 12 12 12 13
23 25 25 25 25 25 23 24 23 20 17 16 16 16 16 16 16 17 18 19 19 20 20 20 19 19 19 18 18 17 16 16 15 14 14 13 12 12 11 11 11 12 12 12
24 25 25 26 26 26 23 22 20 17 16 16 16 17 17 16 16 17 18 19 20 20 20 20 19 19 18 18 17 17 16 15 15 14 13 12 12 11 11 11 11 11 11 12
24 25 26 26 25 24 23 20 19 19 17 17 16 17 17 17 18 18 18 19 20 20 20 20 19 19 18 18 17 16 15 15 14 13 13 12 11 11 11 10 10 10 10 10
23 23 25 27 26 25 24 21 20 20 18 16 16 17 17 18 19 19 19 20 20 20 20 19 19 18 18 17 16 16 15 14 13 13 12 11 11 11 10 10 10 10 10 10
22 23 26 27 27 26 25 22 21 18 17 16 17 17 18 19 20 20 20 20 20 20 19 19 19 18 17 17 16 15 14 13 13 12 12 11 11 10 10 10 10 9 9 9
23 24 24 26 26 25 24 22 19 18 18 18 18 18 17 19 19 19 19 19 19 19 19 19 18 18 17 16 15 15 14 13 12 12 11 11 11 10 10 9 9 9 9 9
23 22 23 24 25 25 24 23 19 17 17 17 18 18 19 19 18 18 18 20 20 19 19 19 18 18 17 16 15 14 13 13 12 12 11 11 10 10 10 9 9 9 9 9
22 19 21 23 24 25 24 23 20 19 20 17 17 18 20 18 18 19 19 20 20 19 19 19 18 17 16 15 14 14 13 12 12 12 11 11 10 10 10 9 9 9 8 8
22 19 20 20 21 23 24 24 21 18 17 17 17 19 19 19 19 20 20 20 19 19 19 18 17 16 16 15 14 13 13 12 12 12 11 11 10 10 10 9 9 9 8 8
22 19 20 21 21 22 24 25 23 19 18 19 19 19 19 18 18 18 20 20 19 19 18 17 17 16 15 14 14 13 13 12 12 11 11 11 10 10 10 9 9 8 8 8
22 22 23 23 23 24 25 25 24 22 20 19 19 18 18 17 17 19 20 19 19 18 17 17 16 15 15 14 13 13 12 12 12 11 11 11 10 10 9 9 9 8 8 8
20 22 23 22 24 24 24 25 25 24 23 21 19 19 18 19 20 20 20 19 18 18 17 17 16 15 14 14 13 13 12 12 11 11 11 10 10 9 9 9 8 8 8 7
20 21 21 20 21 22 22 24 24 24 23 21 20 19 19 18 18 19 19 19 18 18 17 17 16 15 14 13 13 12 12 11 11 11 10 10 9 9 9 8 8 8 8 7
20 19 18 19 20 22 21 23 24 23 22 21 19 19 19 19 19 19 20 19 19 18 17 17 16 15 14 13 13 12 12 11 11 10 10 9 9 9 8 8 8 8 7 7
20 19 19 18 20 21 22 23 23 22 21 20 19 19 19 19 18 18 19 19 19 18 17 16 15 15 14 13 12 12 11 11 10 10 9 9 8 8 8 8 7 7 7 7
20 19 19 19 20 20 21 23 24 21 20 21 20 19 20 18 16 17 20 19 18 18 17 16 15 15 14 13 12 11 11 10 10 9 9 8 8 8 7 7 7 7 7 8
21 20 19 19 19 20 22 24 24 21 20 22 22 22 22 19 19 21 20 19 18 18 17 16 15 15 14 13 12 11 10 10 9 9 9 8 8 7 7 7 7 7 7 8
21 20 19 18 19 20 22 24 22 21 24 24 23 23 23 22 22 21 20 19 18 18 17 16 15 14 13 12 12 11 10 10 9 9 8 8 8 7 7 7 7 7 7 8
20 20 18 19 19 22 25 25 26 26 24 24 24 23 23 22 22 21 20 19 19 18 17 16 15 14 13 12 11 11 10 9 9 9 8 8 8 7 7 7 7 7 8 8
20 21 20 20 20 22 25 26 26 25 25 25 24 24 23 23 22 21 20 19 19 18 17 16 15 14 13 12 11 10 10 9 9 8 8 8 7 7 7 7 7 7 8 8
20 21 20 19 20 23 25 26 26 26 25 25 24 24 23 23 22 21 20 20 19 18 17 16 15 14 13 12 11 10 10 9 9 8 8 7 7 7 7 7 7 8 8 8
19 21 20 19 22 20 24 26 26 25 25 25 24 24 23 23 22 21 21 20 19 18 17 16 15 14 13 12 11 10 10 9 9 8 8 7 7 7 7 7 8 9 8 8

GEFSCGP_850_meantemp_042.txt.gz
Temperature
22 20 20 20 21 22 21 21 20 20 19 18 17 17 16 16 16 16 16 16 17 17 18 17 18 17 17 17 17 17 17 17 16 16 15 15 15 14 14 13 13 13 13 13
21 21 22 22 22 22 21 21 20 19 19 18 17 17 17 16 16 16 16 17 17 17 17 18 18 18 18 17 17 17 17 16 16 15 15 14 14 13 13 13 12 12 12 12
22 22 23 23 22 22 21 21 20 19 18 17 18 18 17 17 16 17 17 17 18 18 18 18 18 18 18 17 17 17 16 16 15 15 14 14 13 13 12 12 12 12 12 12
22 23 23 23 23 22 21 21 20 19 18 16 17 17 17 16 16 17 17 17 18 18 19 19 18 18 18 18 17 17 16 16 15 15 14 13 13 12 12 11 11 11 11 11
23 23 23 23 23 22 20 20 19 18 16 16 16 16 16 16 17 17 17 18 18 19 19 19 19 19 18 18 17 17 16 16 15 14 13 13 12 12 11 11 11 11 11 11
22 23 23 23 22 21 20 18 17 15 15 17 16 16 16 16 17 17 17 19 19 19 19 19 19 19 18 18 17 17 16 16 15 14 13 12 12 11 11 11 11 11 11 11
22 23 23 23 21 21 19 18 17 17 16 16 16 15 15 17 17 17 18 19 20 20 19 19 19 19 18 18 18 17 16 15 14 13 13 12 12 11 11 11 10 10 10 10
22 22 23 23 22 20 19 19 18 19 17 16 16 16 16 18 18 19 19 19 20 19 19 19 19 19 18 18 17 16 16 15 14 13 12 12 11 11 11 11 10 10 10 10
22 22 23 24 23 21 20 18 17 15 16 16 16 16 17 18 18 18 19 19 19 20 20 20 19 19 18 18 17 16 15 14 13 13 12 12 11 11 11 11 10 10 10 10
22 22 23 23 23 22 20 16 15 16 17 18 18 17 17 19 19 18 18 19 20 20 20 20 19 19 18 17 16 15 15 14 13 13 12 12 11 11 11 11 10 10 10 10
21 21 22 22 23 23 21 18 15 14 15 16 17 17 17 17 18 17 18 20 20 20 20 20 19 18 18 17 16 15 14 14 13 12 12 12 11 11 11 10 10 10 10 9
19 18 19 21 22 22 22 21 16 18 17 15 16 17 18 17 17 18 19 20 20 20 20 19 19 18 17 17 16 15 14 13 13 12 12 12 11 11 11 10 10 10 9 9
18 18 19 20 20 21 22 20 17 15 14 14 16 18 18 17 17 18 19 20 21 20 20 19 18 18 17 16 16 15 14 13 13 12 12 11 11 11 10 10 10 9 9 9
19 18 19 20 20 21 21 21 17 17 16 15 16 18 18 18 17 18 19 21 20 20 19 19 18 18 17 16 15 14 14 13 12 12 12 11 11 10 10 10 9 9 9 9
19 20 20 19 20 20 21 21 20 18 17 17 18 17 18 17 16 19 20 20 20 20 19 19 18 18 17 16 15 14 13 13 12 12 11 11 10 10 10 9 9 9 9 8
18 20 20 21 22 21 21 21 21 20 19 18 19 18 17 18 18 18 19 19 20 20 20 19 18 17 17 16 15 14 13 13 12 12 11 11 10 10 9 9 9 9 8 8
17 18 19 19 20 21 21 22 22 22 20 19 19 19 18 17 16 19 20 20 20 20 20 19 18 17 17 16 15 14 13 12 12 11 11 10 10 9 9 9 9 8 8 8
16 16 16 18 21 22 20 21 21 21 21 18 18 18 17 18 21 22 22 21 21 20 20 19 18 17 16 15 15 14 13 12 12 11 11 10 9 9 9 9 8 8 8 8
15 16 15 16 19 20 20 21 21 21 21 19 18 18 18 18 18 20 22 21 21 21 20 19 18 17 16 15 15 14 13 12 12 11 10 10 9 9 9 8 8 8 8 7
15 15 15 16 19 19 20 21 21 21 21 20 19 17 17 17 16 18 23 22 21 21 20 19 18 17 16 15 14 14 13 12 12 11 10 10 9 9 8 8 8 8 7 7
18 16 17 16 17 18 19 20 21 21 19 22 22 21 18 17 20 23 23 22 22 21 20 19 18 17 17 15 14 14 13 12 12 11 10 10 9 8 8 8 8 7 7 7
19 18 17 15 17 18 20 20 20 20 23 24 24 23 22 23 24 23 23 22 22 21 20 19 18 18 16 15 14 14 13 12 12 11 10 10 9 8 8 8 7 7 7 7
16 17 16 16 18 20 21 21 23 23 23 24 24 25 24 23 23 23 23 23 22 21 20 19 18 17 16 15 15 14 13 12 12 11 10 10 9 9 8 7 7 7 7 7
17 15 15 15 17 20 23 23 24 24 24 25 25 24 24 23 24 24 23 23 22 22 20 19 18 17 17 16 15 14 13 12 12 11 10 10 9 9 8 8 7 7 7 8
17 17 15 16 16 19 23 23 22 23 23 24 24 24 24 23 23 23 23 23 23 22 21 19 18 18 17 16 15 14 13 12 12 11 10 10 9 9 9 8 8 8 8 8
14 15 16 16 19 17 19 19 20 21 22 22 22 22 22 22 23 23 23 23 22 21 20 19 18 18 17 16 15 14 13 12 12 11 11 10 9 9 8 8 9 9 8 8

GEFSCGP_850_meantemp_048.txt.gz
Temperature
27 28 28 29 28 28 28 27 27 26 25 25 25 24 23 21 21 20 20 19 19 18 18 17 17 17 17 17 17 17 17 17 16 16 15 15 15 14 14 13 12 12 12 12
28 28 29 28 28 27 27 27 27 25 24 25 24 23 22 21 21 20 20 19 19 19 18 18 17 17 17 17 17 17 17 16 16 15 15 15 14 14 13 12 12 11 11 11
28 29 28 28 28 27 27 27 27 26 24 24 24 23 22 22 21 20 20 20 20 20 19 18 18 18 18 17 17 17 17 16 16 15 15 14 14 14 14 13 12 11 11 11
29 29 28 28 28 28 27 27 26 25 25 25 25 25 23 23 22 21 21 20 20 20 20 19 19 18 18 18 17 17 17 16 16 16 15 14 14 14 13 12 12 11 11 11
29 29 28 28 27 27 27 26 26 26 26 26 25 26 25 24 23 23 23 22 21 21 20 20 20 19 19 18 18 17 17 16 16 16 15 14 14 13 13 12 11 11 11 10
29 28 28 28 27 27 26 26 26 26 27 26 25 25 25 25 25 25 24 23 22 21 21 20 20 19 19 18 18 17 17 17 16 16 15 14 13 12 12 11 11 11 12 11
28 28 28 28 27 26 26 27 27 26 26 26 24 25 26 26 26 25 25 24 22 22 21 21 20 20 19 18 18 17 17 16 16 15 14 13 13 12 12 11 12 11 12 12
28 28 29 28 28 28 27 27 26 25 26 26 25 26 26 26 25 25 24 24 23 22 22 21 21 20 19 18 18 17 17 16 15 14 14 13 13 12 12 12 11 11 11 11
28 28 29 28 28 28 28 28 28 27 26 26 26 26 27 26 26 25 25 24 24 23 22 22 21 20 19 18 18 17 16 16 15 14 13 13 12 12 12 11 11 11 11 11
29 28 29 28 28 27 28 28 27 27 25 26 26 26 27 26 26 26 26 25 24 23 22 21 21 20 19 18 17 17 16 15 15 14 13 13 12 12 12 11 11 11 10 10
29 28 28 28 28 28 27 27 27 27 27 26 26 27 28 27 27 27 27 26 25 24 23 22 21 20 19 18 17 17 16 15 15 14 13 13 12 12 11 11 11 11 10 10
28 28 28 28 28 28 28 28 27 26 26 26 26 27 28 28 27 27 27 26 25 24 23 22 20 19 19 18 18 17 16 15 15 14 13 13 12 12 12 11 11 10 10 10
28 27 27 27 27 27 28 28 27 27 26 26 26 27 27 27 27 26 26 25 24 22 22 21 20 19 19 18 18 17 16 15 15 14 13 13 12 12 11 11 11 10 10 10
27 27 27 26 27 28 27 28 27 27 27 27 27 27 28 28 27 27 25 24 24 22 21 21 20 19 19 18 18 17 16 16 15 14 14 13 12 12 12 11 11 10 10 10
27 27 27 28 28 28 28 27 27 27 27 27 27 27 28 28 27 27 25 24 23 22 21 21 20 20 19 19 18 17 17 16 15 14 14 13 12 12 11 11 10 10 10 10
26 26 27 27 28 28 27 27 27 27 27 27 27 27 28 27 26 25 25 24 23 22 22 21 21 20 20 19 18 17 17 16 15 14 14 13 12 12 11 11 10 10 10 9
27 26 26 26 27 27 26 27 27 27 28 27 27 28 28 27 26 26 25 24 24 23 23 22 21 20 20 19 18 18 17 16 15 14 14 13 12 12 11 11 10 10 9 9
26 25 26 26 26 25 27 29 28 27 28 28 27 28 27 27 26 25 24 24 24 23 23 22 21 21 20 19 18 18 17 16 15 14 14 13 12 12 11 11 10 10 9 9
25 25 25 26 25 26 28 28 28 27 27 28 28 28 27 26 25 26 25 24 24 24 23 22 22 21 20 19 19 18 17 16 15 15 14 13 12 12 11 10 10 10 9 9
24 24 25 25 24 24 26 27 27 27 26 28 27 27 27 26 26 27 26 25 24 23 23 22 22 21 20 20 19 18 17 16 15 15 14 13 13 12 12 11 11 10 9 9
25 24 24 24 24 25 27 26 26 25 25 26 26 26 26 26 26 26 26 25 24 23 23 22 21 21 20 20 19 18 17 16 15 14 14 13 13 12 12 11 11 10 9 9
26 26 25 25 24 25 26 26 26 24 23 24 24 24 24 24 24 24 24 23 23 22 22 21 21 21 20 20 19 18 17 16 15 14 14 13 13 12 11 11 11 10 9 9
26 26 26 26 26 25 24 23 22 21 21 21 22 22 23 23 23 23 23 22 22 21 21 20 20 20 19 19 19 18 18 16 16 15 14 14 13 12 12 11 10 10 9 9
26 25 25 25 26 24 21 20 19 19 19 19 20 20 21 21 21 21 21 20 20 20 19 19 19 18 18 19 19 18 17 16 16 15 14 14 13 12 11 11 10 10 9 9
25 24 25 24 24 23 20 17 17 17 17 18 18 18 19 19 19 19 18 18 18 18 18 18 18 17 17 17 18 18 17 16 15 15 14 13 12 12 12 11 11 10 9 9
23 23 23 23 20 21 18 16 16 17 17 17 17 17 17 17 17 17 17 17 17 17 17 17 16 16 16 16 17 16 16 16 15 14 13 13 12 12 11 11 10 10 10 9